,,,PA_Meas_PMT16A,,PR_Meas_QMR101_102,,RH_Meas_QMH101,,SR_Meas_QMS101,,TA_Meas_QMH101,,GenWind,,GenWind,
date,time,status,PA,status,PR,status,RH,status,SR,status,TA,status,DirAvg,status,SpdAvg,
2014-12-26, 00:00:04,VALID,1008.7,VALID,0,INVALID,112.045,VALID,0,VALID,25.0954,VALID,350,VALID,0,
2014-12-26, 00:01:04,VALID,1008.69,VALID,0,INVALID,111.885,VALID,0,VALID,25.0973,VALID,350,VALID,0,
2014-12-26, 00:02:04,VALID,1008.65,VALID,0,INVALID,112.022,VALID,0,VALID,25.0973,VALID,350,VALID,0,
2014-12-26, 00:03:04,VALID,1008.66,VALID,0,INVALID,112.068,VALID,0,VALID,25.0778,VALID,350,VALID,0,
2014-12-26, 00:04:04,VALID,1008.65,VALID,0,INVALID,112.51,VALID,0,VALID,25.0778,VALID,350,VALID,0,
2014-12-26, 00:05:04,VALID,1008.61,VALID,0,INVALID,112.518,VALID,0,VALID,25.0778,VALID,350,VALID,0,
2014-12-26, 00:06:04,VALID,1008.6,VALID,0,INVALID,112.701,VALID,0,VALID,25.0797,VALID,350,VALID,0,
2014-12-26, 00:07:04,VALID,1008.59,VALID,0,INVALID,112.304,VALID,0,VALID,25.0583,VALID,350,VALID,0,
2014-12-26, 00:08:04,VALID,1008.6,VALID,0,INVALID,112.632,VALID,0,VALID,25.0583,VALID,350,VALID,0,
2014-12-26, 00:09:04,VALID,1008.6,VALID,0,INVALID,112.968,VALID,0,VALID,25.0602,VALID,350,VALID,0,
2014-12-26, 00:10:04,VALID,1008.61,VALID,0,INVALID,112.625,VALID,0,VALID,25.0193,VALID,350,VALID,0,
2014-12-26, 00:11:04,VALID,1008.62,VALID,0,INVALID,112.221,VALID,0,VALID,25.0193,VALID,350,VALID,0,
2014-12-26, 00:12:04,VALID,1008.62,VALID,0,INVALID,112.16,VALID,0,VALID,25.0388,VALID,350,VALID,0,
2014-12-26, 00:13:04,VALID,1008.59,VALID,0,INVALID,112.396,VALID,0,VALID,25.0388,VALID,350,VALID,0,
2014-12-26, 00:14:04,VALID,1008.59,VALID,0,INVALID,112.198,VALID,0,VALID,25.0407,VALID,350,VALID,0,
2014-12-26, 00:15:04,VALID,1008.57,VALID,0,INVALID,112.205,VALID,0,VALID,25.0407,VALID,350,VALID,0,
2014-12-26, 00:16:04,VALID,1008.54,VALID,0,INVALID,112.182,VALID,0,VALID,24.9998,VALID,350,VALID,0,
2014-12-26, 00:17:04,VALID,1008.55,VALID,0,INVALID,112.076,VALID,0,VALID,25.0212,VALID,350,VALID,0,
2014-12-26, 00:18:04,VALID,1008.51,VALID,0,INVALID,112.915,VALID,0,VALID,24.9998,VALID,350,VALID,0,
2014-12-26, 00:19:04,VALID,1008.5,VALID,0,INVALID,113.342,VALID,0,VALID,24.9803,VALID,350,VALID,0,
2014-12-26, 00:20:04,VALID,1008.47,VALID,0,INVALID,113.708,VALID,0,VALID,25.0017,VALID,350,VALID,0,
2014-12-26, 00:21:04,VALID,1008.5,VALID,0,INVALID,113.875,VALID,0,VALID,24.9803,VALID,350,VALID,0,
2014-12-26, 00:22:04,VALID,1008.47,VALID,0,INVALID,113.608,VALID,0,VALID,25.0212,VALID,350,VALID,0,
2014-12-26, 00:23:04,VALID,1008.45,VALID,0,INVALID,113.99,VALID,0,VALID,25.0017,VALID,350,VALID,0,
2014-12-26, 00:24:04,VALID,1008.46,VALID,0,INVALID,113.708,VALID,0,VALID,24.9998,VALID,350,VALID,0,
2014-12-26, 00:25:04,VALID,1008.44,VALID,0,INVALID,112.144,VALID,0,VALID,24.9822,VALID,350,VALID,0,
2014-12-26, 00:26:04,VALID,1008.45,VALID,0,INVALID,111.626,VALID,0,VALID,24.9803,VALID,350,VALID,0,
2014-12-26, 00:27:04,VALID,1008.41,VALID,0,INVALID,111.199,VALID,0,VALID,24.9822,VALID,350,VALID,0,
2014-12-26, 00:28:04,VALID,1008.39,VALID,0,INVALID,110.924,VALID,0,VALID,24.9608,VALID,350,VALID,0,
2014-12-26, 00:29:04,VALID,1008.38,VALID,0,INVALID,111.336,VALID,0,VALID,24.9608,VALID,350,VALID,0,
2014-12-26, 00:30:04,VALID,1008.37,VALID,0,INVALID,111.771,VALID,0,VALID,24.9822,VALID,350,VALID,0,
2014-12-26, 00:31:04,VALID,1008.33,VALID,0,INVALID,112.007,VALID,0.112112,VALID,24.9589,VALID,350,VALID,0,
2014-12-26, 00:32:04,VALID,1008.33,VALID,0,INVALID,112.518,VALID,0.112112,VALID,24.9589,VALID,350,VALID,0,
2014-12-26, 00:33:04,VALID,1008.31,VALID,0,INVALID,113.159,VALID,0.112112,VALID,24.9608,VALID,350,VALID,0,
2014-12-26, 00:34:04,VALID,1008.29,VALID,0,INVALID,113.975,VALID,0.112112,VALID,24.9589,VALID,350,VALID,0,
2014-12-26, 00:35:04,VALID,1008.27,VALID,0,INVALID,114.951,VALID,0.112112,VALID,24.9589,VALID,350,VALID,0,
2014-12-26, 00:36:04,VALID,1008.23,VALID,0,INVALID,114.897,VALID,0.112112,VALID,24.9589,VALID,350,VALID,0,
2014-12-26, 00:37:04,VALID,1008.23,VALID,0,INVALID,114.661,VALID,0.112112,VALID,24.9589,VALID,350,VALID,0,
2014-12-26, 00:38:04,VALID,1008.2,VALID,0,INVALID,115.797,VALID,0.112112,VALID,24.9784,VALID,350,VALID,0,
2014-12-26, 00:39:04,VALID,1008.19,VALID,0,INVALID,115.065,VALID,0.112112,VALID,24.9979,VALID,350,VALID,0,
2014-12-26, 00:40:04,VALID,1008.17,VALID,0,INVALID,114.501,VALID,0.112112,VALID,25.0174,VALID,350,VALID,0,
2014-12-26, 00:41:04,VALID,1008.18,VALID,0,INVALID,113.326,VALID,0,VALID,24.9979,VALID,110,VALID,0,
2014-12-26, 00:42:04,VALID,1008.13,VALID,0,INVALID,113.067,VALID,0.112112,VALID,25.0193,VALID,105,VALID,0,
2014-12-26, 00:43:04,VALID,1008.09,VALID,0,INVALID,113.875,VALID,0.112112,VALID,24.9979,VALID,105,VALID,0,
2014-12-26, 00:44:04,VALID,1008.08,VALID,0,INVALID,114.836,VALID,0.112112,VALID,24.9784,VALID,105,VALID,0,
2014-12-26, 00:45:04,VALID,1008.08,VALID,0,INVALID,115.988,VALID,0.112112,VALID,24.9784,VALID,105,VALID,0,
2014-12-26, 00:46:04,VALID,1008.08,VALID,0,INVALID,117.742,VALID,0,VALID,24.9803,VALID,105,VALID,0,
2014-12-26, 00:47:04,VALID,1008.07,VALID,0,INVALID,118.55,VALID,0,VALID,24.9627,VALID,105,VALID,0,
2014-12-26, 00:48:04,VALID,1008.05,VALID,0,INVALID,119.984,VALID,0,VALID,24.9413,VALID,105,VALID,0,
2014-12-26, 00:49:04,VALID,1008.09,VALID,0,INVALID,120.655,VALID,0,VALID,24.9218,VALID,105,VALID,0,
2014-12-26, 00:50:04,VALID,1008.09,VALID,0,INVALID,121.387,VALID,0,VALID,24.9218,VALID,105,VALID,0,
2014-12-26, 00:51:04,VALID,1008.09,VALID,0,INVALID,122.302,VALID,0,VALID,24.9218,VALID,105,VALID,0,
2014-12-26, 00:52:04,VALID,1008.11,VALID,0,INVALID,123.476,VALID,0,VALID,24.9023,VALID,105,VALID,0,
2014-12-26, 00:53:04,VALID,1008.09,VALID,0,INVALID,124.178,VALID,0,VALID,24.9023,VALID,105,VALID,0,
2014-12-26, 00:54:04,VALID,1008.08,VALID,0,INVALID,124.277,VALID,0,VALID,24.8633,VALID,105,VALID,0,
2014-12-26, 00:55:04,VALID,1008.1,VALID,0,INVALID,124.673,VALID,0,VALID,24.8633,VALID,105,VALID,0,
2014-12-26, 00:56:04,VALID,1008.09,VALID,0,INVALID,125.497,VALID,0.112112,VALID,24.8828,VALID,105,VALID,0,
2014-12-26, 00:57:04,VALID,1008.07,VALID,0,INVALID,126.389,VALID,0,VALID,24.8828,VALID,105,VALID,0,
2014-12-26, 00:58:04,VALID,1008.08,VALID,0,INVALID,126.412,VALID,0,VALID,24.8633,VALID,105,VALID,0,
2014-12-26, 00:59:04,VALID,1008.02,VALID,0,INVALID,126.61,VALID,0,VALID,24.8633,VALID,105,VALID,0,
2014-12-26, 01:00:04,VALID,1007.98,VALID,0,INVALID,126.153,VALID,0,VALID,24.8438,VALID,105,VALID,0,
2014-12-26, 01:01:04,VALID,1007.99,VALID,0,INVALID,126.084,VALID,0,VALID,24.8244,VALID,105,VALID,0,
2014-12-26, 01:02:04,VALID,1007.92,VALID,0,INVALID,127.228,VALID,0,VALID,24.8457,VALID,105,VALID,0,
2014-12-26, 01:03:04,VALID,1007.95,VALID,0,INVALID,127.015,VALID,0,VALID,24.8049,VALID,105,VALID,0,
2014-12-26, 01:04:04,VALID,1007.91,VALID,0,INVALID,126.931,VALID,0,VALID,24.7659,VALID,105,VALID,0,
2014-12-26, 01:05:04,VALID,1007.93,VALID,0,INVALID,127.312,VALID,0,VALID,24.7464,VALID,105,VALID,0,
2014-12-26, 01:06:04,VALID,1007.91,VALID,0,INVALID,127.571,VALID,0,VALID,24.7055,VALID,105,VALID,0,
2014-12-26, 01:07:04,VALID,1007.91,VALID,0,INVALID,128.151,VALID,0,VALID,24.7074,VALID,105,VALID,0,
2014-12-26, 01:08:04,VALID,1007.92,VALID,0,INVALID,129.363,VALID,0,VALID,24.6684,VALID,105,VALID,0,
2014-12-26, 01:09:04,VALID,1007.92,VALID,0,INVALID,130.591,VALID,0,VALID,24.6684,VALID,105,VALID,0,
2014-12-26, 01:10:04,VALID,1007.92,VALID,0,INVALID,131.01,VALID,0,VALID,24.6489,VALID,105,VALID,0,
2014-12-26, 01:11:04,VALID,1007.93,VALID,0,INVALID,131.849,VALID,0,VALID,24.6294,VALID,105,VALID,0,
2014-12-26, 01:12:04,VALID,1007.91,VALID,0,INVALID,132.192,VALID,0,VALID,24.6294,VALID,105,VALID,0,
2014-12-26, 01:13:04,VALID,1007.91,VALID,0,INVALID,132.246,VALID,0,VALID,24.6294,VALID,105,VALID,0,
2014-12-26, 01:14:04,VALID,1007.93,VALID,0,INVALID,132.795,VALID,0,VALID,24.6099,VALID,105,VALID,0,
2014-12-26, 01:15:04,VALID,1007.91,VALID,0,INVALID,133.214,VALID,0,VALID,24.6294,VALID,105,VALID,0,
2014-12-26, 01:16:04,VALID,1007.94,VALID,0,INVALID,133.695,VALID,0,VALID,24.6099,VALID,105,VALID,0,
2014-12-26, 01:17:04,VALID,1007.91,VALID,0,INVALID,134.236,VALID,0,VALID,24.6099,VALID,105,VALID,0,
2014-12-26, 01:18:04,VALID,1007.9,VALID,0,INVALID,134.61,VALID,0,VALID,24.5905,VALID,105,VALID,0,
2014-12-26, 01:19:04,VALID,1007.86,VALID,0,INVALID,134.922,VALID,0,VALID,24.5905,VALID,105,VALID,0,
2014-12-26, 01:20:04,VALID,1007.83,VALID,0,INVALID,135.258,VALID,0,VALID,24.5691,VALID,105,VALID,0,
2014-12-26, 01:21:04,VALID,1007.81,VALID,0,INVALID,135.647,VALID,0,VALID,24.571,VALID,105,VALID,0,
2014-12-26, 01:22:04,VALID,1007.8,VALID,0,INVALID,135.86,VALID,0,VALID,24.5515,VALID,105,VALID,0,
2014-12-26, 01:23:04,VALID,1007.76,VALID,0,INVALID,136.127,VALID,0,VALID,24.571,VALID,105,VALID,0,
2014-12-26, 01:24:04,VALID,1007.72,VALID,0,INVALID,136.28,VALID,0,VALID,24.5515,VALID,105,VALID,0,
2014-12-26, 01:25:04,VALID,1007.69,VALID,0,INVALID,136.463,VALID,0,VALID,24.5728,VALID,105,VALID,0,
2014-12-26, 01:26:04,VALID,1007.64,VALID,0,INVALID,136.615,VALID,0,VALID,24.5301,VALID,105,VALID,0,
2014-12-26, 01:27:04,VALID,1007.6,VALID,0,INVALID,136.722,VALID,0,VALID,24.5515,VALID,105,VALID,0,
2014-12-26, 01:28:04,VALID,1007.57,VALID,0,INVALID,136.859,VALID,0,VALID,24.5515,VALID,105,VALID,0,
2014-12-26, 01:29:04,VALID,1007.55,VALID,0,INVALID,136.898,VALID,0,VALID,24.5515,VALID,105,VALID,0,
2014-12-26, 01:30:04,VALID,1007.52,VALID,0,INVALID,136.974,VALID,0,VALID,24.532,VALID,105,VALID,0,
2014-12-26, 01:31:04,VALID,1007.47,VALID,0,INVALID,137.02,VALID,0,VALID,24.5125,VALID,105,VALID,0,
2014-12-26, 01:32:04,VALID,1007.47,VALID,0,INVALID,137.119,VALID,0,VALID,24.5125,VALID,105,VALID,0,
2014-12-26, 01:33:04,VALID,1007.45,VALID,0,INVALID,137.21,VALID,0,VALID,24.5533,VALID,105,VALID,0,
2014-12-26, 01:34:04,VALID,1007.46,VALID,0,INVALID,137.286,VALID,0.112112,VALID,24.5533,VALID,105,VALID,0,
2014-12-26, 01:35:04,VALID,1007.42,VALID,0,INVALID,137.294,VALID,0,VALID,24.532,VALID,105,VALID,0,
2014-12-26, 01:36:04,VALID,1007.45,VALID,0,INVALID,137.302,VALID,0,VALID,24.5125,VALID,105,VALID,0,
2014-12-26, 01:37:04,VALID,1007.44,VALID,0,INVALID,137.355,VALID,0,VALID,24.5125,VALID,105,VALID,0,
2014-12-26, 01:38:04,VALID,1007.42,VALID,0,INVALID,137.469,VALID,0,VALID,24.5125,VALID,105,VALID,0,
2014-12-26, 01:39:04,VALID,1007.41,VALID,0,INVALID,137.508,VALID,0,VALID,24.5125,VALID,105,VALID,0,
2014-12-26, 01:40:04,VALID,1007.4,VALID,0,INVALID,137.485,VALID,0,VALID,24.5125,VALID,105,VALID,0,
2014-12-26, 01:41:04,VALID,1007.39,VALID,0,INVALID,137.508,VALID,0,VALID,24.5125,VALID,105,VALID,0,
2014-12-26, 01:42:04,VALID,1007.37,VALID,0,INVALID,137.53,VALID,0,VALID,24.5125,VALID,105,VALID,0,
2014-12-26, 01:43:04,VALID,1007.35,VALID,0,INVALID,137.569,VALID,0,VALID,24.5125,VALID,105,VALID,0,
2014-12-26, 01:44:04,VALID,1007.33,VALID,0,INVALID,137.569,VALID,0,VALID,24.5125,VALID,105,VALID,0,
2014-12-26, 01:45:04,VALID,1007.29,VALID,0,INVALID,137.492,VALID,0,VALID,24.493,VALID,105,VALID,0,
2014-12-26, 01:46:04,VALID,1007.27,VALID,0,INVALID,137.5,VALID,0,VALID,24.493,VALID,105,VALID,0,
2014-12-26, 01:47:04,VALID,1007.25,VALID,0,INVALID,137.469,VALID,0,VALID,24.493,VALID,105,VALID,0,
2014-12-26, 01:48:04,VALID,1007.25,VALID,0,INVALID,137.408,VALID,0,VALID,24.493,VALID,105,VALID,0,
2014-12-26, 01:49:04,VALID,1007.24,VALID,0,INVALID,137.431,VALID,0,VALID,24.4735,VALID,105,VALID,0,
2014-12-26, 01:50:04,VALID,1007.28,VALID,0,INVALID,137.431,VALID,0,VALID,24.454,VALID,105,VALID,0,
2014-12-26, 01:51:04,VALID,1007.24,VALID,0,INVALID,137.447,VALID,0,VALID,24.4345,VALID,105,VALID,0,
2014-12-26, 01:52:04,VALID,1007.23,VALID,0,INVALID,137.53,VALID,0,VALID,24.4345,VALID,105,VALID,0,
2014-12-26, 01:53:04,VALID,1007.25,VALID,0,INVALID,137.569,VALID,0,VALID,24.4345,VALID,105,VALID,0,
2014-12-26, 01:54:04,VALID,1007.25,VALID,0,INVALID,137.713,VALID,0,VALID,24.415,VALID,105,VALID,0,
2014-12-26, 01:55:04,VALID,1007.26,VALID,0,INVALID,137.752,VALID,0,VALID,24.415,VALID,105,VALID,0,
2014-12-26, 01:56:04,VALID,1007.29,VALID,0,INVALID,137.851,VALID,0,VALID,24.3956,VALID,105,VALID,0,
2014-12-26, 01:57:04,VALID,1007.32,VALID,0,INVALID,137.866,VALID,0,VALID,24.3956,VALID,105,VALID,0,
2014-12-26, 01:58:04,VALID,1007.32,VALID,0,INVALID,137.927,VALID,0,VALID,24.3761,VALID,105,VALID,0,
2014-12-26, 01:59:04,VALID,1007.33,VALID,0,INVALID,137.988,VALID,0,VALID,24.3761,VALID,105,VALID,0,
2014-12-26, 02:00:04,VALID,1007.33,VALID,0,INVALID,138.087,VALID,0,VALID,24.3956,VALID,105,VALID,0,
2014-12-26, 02:01:04,VALID,1007.3,VALID,0,INVALID,138.148,VALID,0,VALID,24.3761,VALID,105,VALID,0,
2014-12-26, 02:02:04,VALID,1007.28,VALID,0,INVALID,138.148,VALID,0,VALID,24.3547,VALID,105,VALID,0,
2014-12-26, 02:03:04,VALID,1007.29,VALID,0,INVALID,138.156,VALID,0,VALID,24.3761,VALID,105,VALID,0,
2014-12-26, 02:04:04,VALID,1007.28,VALID,0,INVALID,138.232,VALID,0,VALID,24.3566,VALID,105,VALID,0,
2014-12-26, 02:05:04,VALID,1007.24,VALID,0,INVALID,138.285,VALID,0,VALID,24.3566,VALID,105,VALID,0,
2014-12-26, 02:06:04,VALID,1007.22,VALID,0,INVALID,138.278,VALID,0,VALID,24.3371,VALID,105,VALID,0,
2014-12-26, 02:07:04,VALID,1007.23,VALID,0,INVALID,138.331,VALID,0,VALID,24.3371,VALID,105,VALID,0,
2014-12-26, 02:08:04,VALID,1007.23,VALID,0,INVALID,138.415,VALID,0,VALID,24.3566,VALID,105,VALID,0,
2014-12-26, 02:09:04,VALID,1007.21,VALID,0,INVALID,138.385,VALID,0,VALID,24.3779,VALID,105,VALID,0,
2014-12-26, 02:10:04,VALID,1007.26,VALID,0,INVALID,138.423,VALID,0,VALID,24.3371,VALID,105,VALID,0,
2014-12-26, 02:11:04,VALID,1007.25,VALID,0,INVALID,138.423,VALID,0,VALID,24.3389,VALID,105,VALID,0,
2014-12-26, 02:12:04,VALID,1007.26,VALID,0,INVALID,138.461,VALID,0,VALID,24.3176,VALID,105,VALID,0,
2014-12-26, 02:13:04,VALID,1007.27,VALID,0,INVALID,138.453,VALID,0,VALID,24.3176,VALID,105,VALID,0,
2014-12-26, 02:14:04,VALID,1007.29,VALID,0,INVALID,138.415,VALID,0,VALID,24.3371,VALID,105,VALID,0,
2014-12-26, 02:15:04,VALID,1007.32,VALID,0,INVALID,138.377,VALID,0,VALID,24.3371,VALID,105,VALID,0,
2014-12-26, 02:16:04,VALID,1007.33,VALID,0,INVALID,138.461,VALID,0,VALID,24.3371,VALID,105,VALID,0,
2014-12-26, 02:17:04,VALID,1007.39,VALID,0,INVALID,138.476,VALID,0,VALID,24.3566,VALID,105,VALID,0,
2014-12-26, 02:18:04,VALID,1007.41,VALID,0,INVALID,138.476,VALID,0,VALID,24.3566,VALID,105,VALID,0,
2014-12-26, 02:19:04,VALID,1007.38,VALID,0,INVALID,138.507,VALID,0,VALID,24.3371,VALID,105,VALID,0,
2014-12-26, 02:20:04,VALID,1007.41,VALID,0,INVALID,138.499,VALID,0,VALID,24.3371,VALID,105,VALID,0,
2014-12-26, 02:21:04,VALID,1007.42,VALID,0,INVALID,138.514,VALID,0,VALID,24.3761,VALID,105,VALID,0,
2014-12-26, 02:22:04,VALID,1007.39,VALID,0,INVALID,138.507,VALID,0,VALID,24.3956,VALID,105,VALID,0,
2014-12-26, 02:23:04,VALID,1007.38,VALID,0,INVALID,138.537,VALID,0,VALID,24.415,VALID,105,VALID,0,
2014-12-26, 02:24:04,VALID,1007.38,VALID,0,INVALID,138.514,VALID,0,VALID,24.415,VALID,105,VALID,0,
2014-12-26, 02:25:04,VALID,1007.4,VALID,0,INVALID,138.438,VALID,0,VALID,24.4345,VALID,105,VALID,0,
2014-12-26, 02:26:04,VALID,1007.38,VALID,0,INVALID,138.324,VALID,0,VALID,24.4345,VALID,93,VALID,0,
2014-12-26, 02:27:04,VALID,1007.39,VALID,0,INVALID,138.247,VALID,0,VALID,24.454,VALID,92,VALID,0,
2014-12-26, 02:28:04,VALID,1007.37,VALID,0,INVALID,138.202,VALID,0,VALID,24.454,VALID,92,VALID,0,
2014-12-26, 02:29:04,VALID,1007.39,VALID,0,INVALID,138.171,VALID,0,VALID,24.454,VALID,92,VALID,0,
2014-12-26, 02:30:04,VALID,1007.39,VALID,0,INVALID,138.247,VALID,0,VALID,24.4735,VALID,92,VALID,0,
2014-12-26, 02:31:04,VALID,1007.4,VALID,0,INVALID,138.217,VALID,0,VALID,24.4735,VALID,92,VALID,0,
2014-12-26, 02:32:04,VALID,1007.4,VALID,0,INVALID,138.11,VALID,0,VALID,24.4735,VALID,92,VALID,0,
2014-12-26, 02:33:04,VALID,1007.39,VALID,0,INVALID,138.118,VALID,0,VALID,24.493,VALID,92,VALID,0,
2014-12-26, 02:34:04,VALID,1007.36,VALID,0,INVALID,138.08,VALID,0,VALID,24.493,VALID,92,VALID,0,
2014-12-26, 02:35:04,VALID,1007.38,VALID,0,INVALID,137.881,VALID,0,VALID,24.493,VALID,92,VALID,0,
2014-12-26, 02:36:04,VALID,1007.35,VALID,0,INVALID,137.691,VALID,0,VALID,24.5125,VALID,92,VALID,0,
2014-12-26, 02:37:04,VALID,1007.33,VALID,0,INVALID,137.599,VALID,0,VALID,24.5338,VALID,92,VALID,0,
2014-12-26, 02:38:04,VALID,1007.34,VALID,0,INVALID,137.935,VALID,0,VALID,24.532,VALID,93,VALID,0,
2014-12-26, 02:39:04,VALID,1007.32,VALID,0,INVALID,137.858,VALID,0,VALID,24.532,VALID,93,VALID,0,
2014-12-26, 02:40:04,VALID,1007.3,VALID,0,INVALID,137.584,VALID,0,VALID,24.5125,VALID,92,VALID,0,
2014-12-26, 02:41:04,VALID,1007.28,VALID,0,INVALID,137.523,VALID,0,VALID,24.5125,VALID,92,VALID,0,
2014-12-26, 02:42:04,VALID,1007.28,VALID,0,INVALID,137.546,VALID,0,VALID,24.5125,VALID,92,VALID,0,
2014-12-26, 02:43:04,VALID,1007.25,VALID,0,INVALID,137.386,VALID,0,VALID,24.5125,VALID,92,VALID,0,
2014-12-26, 02:44:04,VALID,1007.24,VALID,0,INVALID,137.355,VALID,0,VALID,24.5125,VALID,93,VALID,0,
2014-12-26, 02:45:04,VALID,1007.25,VALID,0,INVALID,137.546,VALID,0,VALID,24.5125,VALID,92,VALID,0,
2014-12-26, 02:46:04,VALID,1007.25,VALID,0,INVALID,137.5,VALID,0.112112,VALID,24.5106,VALID,92,VALID,0,
2014-12-26, 02:47:04,VALID,1007.25,VALID,0,INVALID,137.424,VALID,0.112112,VALID,24.5106,VALID,92,VALID,0,
2014-12-26, 02:48:04,VALID,1007.23,VALID,0,INVALID,137.332,VALID,0.112112,VALID,24.5106,VALID,92,VALID,0,
2014-12-26, 02:49:04,VALID,1007.21,VALID,0,INVALID,137.325,VALID,0.112112,VALID,24.4698,VALID,92,VALID,0,
2014-12-26, 02:50:04,VALID,1007.2,VALID,0,INVALID,137.393,VALID,0.112112,VALID,24.4911,VALID,92,VALID,0,
2014-12-26, 02:51:04,VALID,1007.2,VALID,0,INVALID,137.462,VALID,0.112112,VALID,24.4911,VALID,92,VALID,0,
2014-12-26, 02:52:04,VALID,1007.2,VALID,0,INVALID,137.393,VALID,0.112112,VALID,24.4911,VALID,92,VALID,0,
2014-12-26, 02:53:04,VALID,1007.22,VALID,0,INVALID,137.18,VALID,0.112112,VALID,24.4717,VALID,92,VALID,0,
2014-12-26, 02:54:04,VALID,1007.21,VALID,0,INVALID,137.408,VALID,0.224224,VALID,24.4911,VALID,92,VALID,0,
2014-12-26, 02:55:04,VALID,1007.21,VALID,0,INVALID,137.614,VALID,0.112112,VALID,24.4698,VALID,92,VALID,0,
2014-12-26, 02:56:04,VALID,1007.24,VALID,0,INVALID,137.241,VALID,0.112112,VALID,24.4911,VALID,92,VALID,0,
2014-12-26, 02:57:04,VALID,1007.23,VALID,0,INVALID,136.806,VALID,0.112112,VALID,24.4717,VALID,92,VALID,0,
2014-12-26, 02:58:04,VALID,1007.21,VALID,0,INVALID,136.509,VALID,0.112112,VALID,24.4735,VALID,92,VALID,0,
2014-12-26, 02:59:04,VALID,1007.17,VALID,0,INVALID,136.699,VALID,0.224224,VALID,24.4522,VALID,92,VALID,0,
2014-12-26, 03:00:04,VALID,1007.15,VALID,0,INVALID,137.195,VALID,0.112112,VALID,24.4717,VALID,92,VALID,0,
2014-12-26, 03:01:04,VALID,1007.12,VALID,0,INVALID,136.806,VALID,0.112112,VALID,24.454,VALID,93,VALID,0,
2014-12-26, 03:02:04,VALID,1007.13,VALID,0,INVALID,136.989,VALID,0,VALID,24.454,VALID,93,VALID,0,
2014-12-26, 03:03:04,VALID,1007.13,VALID,0,INVALID,137.233,VALID,0,VALID,24.454,VALID,92,VALID,0,
2014-12-26, 03:04:04,VALID,1007.14,VALID,0,INVALID,137.042,VALID,0,VALID,24.4345,VALID,92,VALID,0,
2014-12-26, 03:05:04,VALID,1007.14,VALID,0,INVALID,137.408,VALID,0,VALID,24.4754,VALID,92,VALID,0,
2014-12-26, 03:06:04,VALID,1007.11,VALID,0,INVALID,136.951,VALID,0,VALID,24.4345,VALID,93,VALID,0,
2014-12-26, 03:07:04,VALID,1007.14,VALID,0,INVALID,136.798,VALID,0,VALID,24.415,VALID,87,VALID,0,
2014-12-26, 03:08:04,VALID,1007.14,VALID,0,INVALID,136.875,VALID,0,VALID,24.3956,VALID,87,VALID,0,
2014-12-26, 03:09:04,VALID,1007.15,VALID,0,INVALID,137.088,VALID,0,VALID,24.415,VALID,87,VALID,0,
2014-12-26, 03:10:04,VALID,1007.11,VALID,0,INVALID,137.683,VALID,0,VALID,24.4132,VALID,87,VALID,0,
2014-12-26, 03:11:04,VALID,1007.13,VALID,0,INVALID,137.546,VALID,0.112112,VALID,24.4345,VALID,87,VALID,0,
2014-12-26, 03:12:04,VALID,1007.13,VALID,0,INVALID,137.523,VALID,0,VALID,24.4345,VALID,87,VALID,0,
2014-12-26, 03:13:04,VALID,1007.14,VALID,0,INVALID,137.782,VALID,0,VALID,24.4345,VALID,87,VALID,0,
2014-12-26, 03:14:04,VALID,1007.14,VALID,0,INVALID,137.218,VALID,0,VALID,24.3956,VALID,87,VALID,0,
2014-12-26, 03:15:04,VALID,1007.12,VALID,0,INVALID,137.05,VALID,0,VALID,24.3956,VALID,87,VALID,0,
2014-12-26, 03:16:04,VALID,1007.16,VALID,0,INVALID,137.248,VALID,0,VALID,24.3956,VALID,87,VALID,0,
2014-12-26, 03:17:04,VALID,1007.17,VALID,0,INVALID,137.454,VALID,0,VALID,24.3956,VALID,87,VALID,0,
2014-12-26, 03:18:04,VALID,1007.19,VALID,0,INVALID,137.622,VALID,0,VALID,24.3956,VALID,87,VALID,0,
2014-12-26, 03:19:04,VALID,1007.18,VALID,0,INVALID,137.874,VALID,0,VALID,24.3956,VALID,87,VALID,0,
2014-12-26, 03:20:04,VALID,1007.18,VALID,0,INVALID,137.752,VALID,0,VALID,24.3761,VALID,87,VALID,0,
2014-12-26, 03:21:04,VALID,1007.14,VALID,0,INVALID,137.805,VALID,0,VALID,24.3761,VALID,87,VALID,0,
2014-12-26, 03:22:04,VALID,1007.12,VALID,0,INVALID,137.767,VALID,0.112112,VALID,24.3566,VALID,87,VALID,0,
2014-12-26, 03:23:04,VALID,1007.11,VALID,0,INVALID,138.049,VALID,0,VALID,24.3352,VALID,87,VALID,0,
2014-12-26, 03:24:04,VALID,1007.12,VALID,0,INVALID,138.179,VALID,0,VALID,24.3352,VALID,87,VALID,0,
2014-12-26, 03:25:04,VALID,1007.11,VALID,0,INVALID,137.95,VALID,0,VALID,24.3371,VALID,87,VALID,0,
2014-12-26, 03:26:04,VALID,1007.11,VALID,0,INVALID,138.346,VALID,0,VALID,24.3371,VALID,87,VALID,0,
2014-12-26, 03:27:04,VALID,1007.14,VALID,0,INVALID,138.423,VALID,0,VALID,24.3371,VALID,87,VALID,0,
2014-12-26, 03:28:04,VALID,1007.15,VALID,0,INVALID,138.346,VALID,0,VALID,24.3176,VALID,87,VALID,0,
2014-12-26, 03:29:04,VALID,1007.15,VALID,0,INVALID,138.438,VALID,0,VALID,24.3176,VALID,87,VALID,0,
2014-12-26, 03:30:04,VALID,1007.16,VALID,0,INVALID,138.362,VALID,0,VALID,24.3176,VALID,87,VALID,0,
2014-12-26, 03:31:04,VALID,1007.18,VALID,0,INVALID,138.27,VALID,0,VALID,24.2981,VALID,87,VALID,0,
2014-12-26, 03:32:04,VALID,1007.17,VALID,0,INVALID,138.339,VALID,0,VALID,24.3194,VALID,87,VALID,0,
2014-12-26, 03:33:04,VALID,1007.19,VALID,0,INVALID,138.545,VALID,0,VALID,24.3389,VALID,87,VALID,0,
2014-12-26, 03:34:04,VALID,1007.2,VALID,0,INVALID,138.72,VALID,0,VALID,24.3176,VALID,87,VALID,0,
2014-12-26, 03:35:04,VALID,1007.19,VALID,0,INVALID,138.781,VALID,0,VALID,24.3176,VALID,87,VALID,0,
2014-12-26, 03:36:04,VALID,1007.22,VALID,0,INVALID,138.85,VALID,0,VALID,24.3371,VALID,87,VALID,0,
2014-12-26, 03:37:04,VALID,1007.2,VALID,0,INVALID,138.735,VALID,0,VALID,24.3389,VALID,87,VALID,0,
2014-12-26, 03:38:04,VALID,1007.19,VALID,0,INVALID,138.644,VALID,0,VALID,24.2981,VALID,87,VALID,0,
2014-12-26, 03:39:04,VALID,1007.18,VALID,0,INVALID,138.735,VALID,0,VALID,24.3194,VALID,87,VALID,0,
2014-12-26, 03:40:04,VALID,1007.19,VALID,0,INVALID,138.667,VALID,0,VALID,24.2786,VALID,87,VALID,0,
2014-12-26, 03:41:04,VALID,1007.18,VALID,0,INVALID,138.682,VALID,0,VALID,24.2786,VALID,87,VALID,0,
2014-12-26, 03:42:04,VALID,1007.2,VALID,0,INVALID,138.773,VALID,0,VALID,24.2786,VALID,87,VALID,0,
2014-12-26, 03:43:04,VALID,1007.19,VALID,0,INVALID,138.697,VALID,0,VALID,24.2786,VALID,87,VALID,0,
2014-12-26, 03:44:04,VALID,1007.21,VALID,0,INVALID,138.766,VALID,0,VALID,24.2786,VALID,87,VALID,0,
2014-12-26, 03:45:04,VALID,1007.24,VALID,0,INVALID,138.804,VALID,0,VALID,24.2786,VALID,87,VALID,0,
2014-12-26, 03:46:04,VALID,1007.27,VALID,0,INVALID,138.751,VALID,0,VALID,24.2591,VALID,87,VALID,0,
2014-12-26, 03:47:04,VALID,1007.28,VALID,0,INVALID,138.834,VALID,0,VALID,24.2591,VALID,87,VALID,0,
2014-12-26, 03:48:04,VALID,1007.27,VALID,0,INVALID,138.911,VALID,0,VALID,24.2805,VALID,87,VALID,0,
2014-12-26, 03:49:04,VALID,1007.28,VALID,0,INVALID,138.979,VALID,0,VALID,24.2805,VALID,87,VALID,0,
2014-12-26, 03:50:04,VALID,1007.28,VALID,0,INVALID,139.048,VALID,0,VALID,24.2805,VALID,87,VALID,0,
2014-12-26, 03:51:04,VALID,1007.27,VALID,0,INVALID,139.025,VALID,0,VALID,24.2591,VALID,87,VALID,0,
2014-12-26, 03:52:04,VALID,1007.28,VALID,0,INVALID,139.04,VALID,0,VALID,24.2591,VALID,87,VALID,0,
2014-12-26, 03:53:04,VALID,1007.28,VALID,0,INVALID,138.949,VALID,0,VALID,24.2591,VALID,87,VALID,0,